{"data":{"norad_id":69832,"epoch":"2026-09-20T04:59:40.475040Z","epoch_age_seconds":42974,"freshness":"FRESH","line1":"1 69832U 26154P   26263.20810735  .00013350  00000+0  40557-3 0  9996","line2":"2 69832  53.1607 333.0663 0000690  68.5562 291.5514 15.34397790 13192","mean_motion":15.3439779,"eccentricity":6.9e-5,"inclination_deg":53.1607,"raan_deg":333.0663,"arg_perigee_deg":68.5562,"mean_anomaly_deg":291.5514,"bstar":0.00040557,"rev_number":1319,"period_min":93.84789325068,"perigee_km":462.23779037092,"apogee_km":463.18182723053,"semimajor_km":6840.8468088007,"source":"CELESTRAK","updated_at":"2026-09-20T09:00:44.295285Z"}}